This is the latest recevied weather packets stored in our database for station/object 9W2CHF-4. If no packets are shown the sender has not sent any weather packets the latest 10 day(s).
| Time | Temp. | Humidity | Pressure | Rain* | Wind** | Luminosity | Snow |
|---|---|---|---|---|---|---|---|
| 1778011715 | 31.67° C | 82% | 1008.6 hPa | - | - | - | - |
| 1778010815 | 31.67° C | 82% | 1008.8 hPa | - | - | - | - |
| 1778009915 | 31.67° C | 83% | 1008.9 hPa | - | - | - | - |
| 1778009015 | 31.67° C | 83% | 1008.9 hPa | - | - | - | - |
| 1778008115 | 31.67° C | 82% | 1009.1 hPa | - | - | - | - |
| 1778007215 | 31.67° C | 82% | 1009.1 hPa | - | - | - | - |
| 1778006315 | 31.67° C | 82% | 1009.3 hPa | - | - | - | - |
| 1778005415 | 31.67° C | 83% | 1009.5 hPa | - | - | - | - |
| 1778004515 | 31.67° C | 83% | 1009.5 hPa | - | - | - | - |
| 1778003615 | 32.22° C | 82% | 1009.8 hPa | - | - | - | - |
| 1778002714 | 32.22° C | 82% | 1009.8 hPa | - | - | - | - |
| 1778001814 | 32.22° C | 82% | 1010.1 hPa | - | - | - | - |
| 1778000914 | 32.22° C | 81% | 1010.3 hPa | - | - | - | - |
| 1778000014 | 32.22° C | 81% | 1010.2 hPa | - | - | - | - |
| 1777999114 | 32.22° C | 81% | 1010.4 hPa | - | - | - | - |
| 1777998214 | 32.22° C | 80% | 1010.5 hPa | - | - | - | - |
| 1777997314 | 32.78° C | 79% | 1010.5 hPa | - | - | - | - |
| 1777996414 | 32.78° C | 78% | 1010.5 hPa | - | - | - | - |
| 1777995514 | 32.22° C | 82% | 1010.3 hPa | - | - | - | - |
| 1777994614 | 32.22° C | 83% | 1010.3 hPa | - | - | - | - |
| 1777993714 | 32.22° C | 83% | 1010.1 hPa | - | - | - | - |
| 1777992814 | 32.78° C | 81% | 1010 hPa | - | - | - | - |
| 1777991914 | 32.78° C | 81% | 1009.9 hPa | - | - | - | - |
| 1777991014 | 32.22° C | 82% | 1009.8 hPa | - | - | - | - |
| 1777989213 | 32.78° C | 79% | 1009.6 hPa | - | - | - | - |
* Rain since midnight (hover to see other rain measurements)
** Current wind speed in m/s (hover to see current wind gust speed)